Weather History for Santee, CA

Change the Weather History Date:

Saturday, February 2, 2013

  Actual Average Record
Temperature  
Mean Temperature 62 °F -  
Max Temperature 80 °F 68 °F 84 °F (2001)
Min Temperature 44 °F 40 °F 32 °F (2002)
Degree Days  
Heating Degree Days 3    
Growing Degree Days 12 (Base 50)    
Moisture  
Dew Point 43 °F    
Average Humidity 64    
Maximum Humidity 93    
Minimum Humidity 21    
Precipitation  
Precipitation 0.00 in - - ()
Sea Level Pressure  
Sea Level Pressure 30.17 in    
Wind  
Wind Speed 2 mph (WNW)    
Max Wind Speed 10 mph    
Max Gust Speed -    
Visibility 10 miles    
Events Rain    
Averages and records for this station are not official NWS values.
T = Trace of Precipitation, MM = Missing Value Source: NWS Daily Summary

Daily Weather History Graph

Daily Weather History Graph

Search for Another Location

Airport:

Trip Planner

Search our weather history database for the weather conditions in past years. The results will help you decide how hot, cold, wet, or windy it might be!

Date:

Astronomy

Feb. 02, 2013 Rise Set
Actual Time 6:41 AM PST 5:21 PM PST
Civil Twilight 6:16 AM PST 5:47 PM PST
Nautical Twilight 5:46 AM PST 6:17 PM PST
Astronomical Twilight 5:17 AM PST 6:46 PM PST
Moon No Moon Rise 10:20 AM PST (2/2)
Length of Visible Light 11h 31m
Length of Day
10h 39m
Waning Gibbous, 58% of the Moon is Illuminated
Feb 2
Waning Gibbous
Feb 3
Last Quarter
Feb 9
New
Feb 17
First Quarter
Feb 25
Full

Hourly Weather History & Observations

Time (PST) Temp. Windchill Dew Point Humidity Pressure Visibility Wind Dir Wind Speed Gust Speed Precip Events Conditions
12:15 AM 51.8 °F - 42.8 °F 71% 30.19 in 10.0 mi WNW 3.5 mph - N/A   Clear
12:35 AM 51.8 °F - 42.8 °F 71% 30.18 in 10.0 mi Calm Calm - N/A   Clear
12:55 AM 51.8 °F - 42.8 °F 71% 30.18 in 10.0 mi West 4.6 mph - N/A   Clear
1:15 AM 51.8 °F - 42.8 °F 71% 30.18 in 10.0 mi Calm Calm - N/A   Clear
1:35 AM 51.8 °F - 42.8 °F 71% 30.18 in 10.0 mi Calm Calm - N/A   Clear
1:55 AM 50.0 °F - 42.8 °F 76% 30.18 in 10.0 mi North - - N/A   Clear
2:15 AM 50.0 °F - 42.8 °F 76% 30.18 in 10.0 mi Calm Calm - N/A   Clear
2:35 AM 48.2 °F - 42.8 °F 82% 30.18 in 10.0 mi WNW 3.5 mph - N/A   Clear
2:55 AM 46.4 °F - 42.8 °F 87% 30.18 in 10.0 mi Calm Calm - N/A   Clear
3:15 AM 48.2 °F - 42.8 °F 82% 30.18 in 10.0 mi Calm Calm - N/A   Clear
3:55 AM 46.4 °F 45.2 °F 42.8 °F 87% 30.18 in 10.0 mi WNW 3.5 mph - N/A   Clear
4:15 AM 46.4 °F - 42.8 °F 87% 30.18 in 10.0 mi Calm Calm - N/A   Clear
4:35 AM 46.4 °F - 42.8 °F 87% 30.18 in 10.0 mi Calm Calm - N/A   Clear
4:55 AM 46.4 °F - 42.8 °F 87% 30.18 in 10.0 mi Calm Calm - N/A   Clear
5:15 AM 46.4 °F - 42.8 °F 87% 30.18 in 10.0 mi Calm Calm - N/A   Clear
6:47 AM 44.6 °F - 42.8 °F 93% 30.19 in 25.0 mi Calm Calm - N/A   Scattered Clouds
8:47 AM 57.2 °F - 42.8 °F 59% 30.21 in 25.0 mi Calm Calm - N/A   Mostly Cloudy
11:55 AM 78.8 °F - 35.6 °F 21% 30.15 in 25.0 mi Calm Calm - N/A   Mostly Cloudy
12:47 PM 80.6 °F - 37.4 °F 21% 30.12 in 25.0 mi West 6.9 mph - N/A   Mostly Cloudy
1:47 PM 78.8 °F - 37.4 °F 23% 30.10 in 25.0 mi West 10.4 mph - N/A   Overcast
6:47 PM 64.4 °F - 42.8 °F 45% 30.16 in 12.0 mi Calm Calm - N/A   Overcast
7:47 PM 64.4 °F - 41.0 °F 42% 30.18 in 12.0 mi Calm Calm - N/A   Overcast
8:15 PM 64.4 °F - 42.8 °F 45% 30.17 in 10.0 mi Calm Calm - N/A   Overcast
8:35 PM 62.6 °F - 42.8 °F 48% 30.18 in 10.0 mi North - - N/A   Mostly Cloudy
8:47 PM 60.8 °F - 44.6 °F 55% 30.18 in 12.0 mi Calm Calm - N/A   Overcast
8:55 PM 60.8 °F - 44.6 °F 55% 30.17 in 10.0 mi WNW 3.5 mph - N/A   Clear
9:15 PM 60.8 °F - 42.8 °F 52% 30.17 in 10.0 mi Calm Calm - N/A   Mostly Cloudy
9:35 PM 62.6 °F - 44.6 °F 52% 30.17 in 10.0 mi Calm Calm - N/A   Mostly Cloudy
9:55 PM 60.8 °F - 42.8 °F 52% 30.16 in 10.0 mi Calm Calm - N/A   Scattered Clouds
10:15 PM 60.8 °F - 44.6 °F 55% 30.16 in 10.0 mi North - - N/A   Mostly Cloudy
10:35 PM 60.8 °F - 46.4 °F 59% 30.16 in 10.0 mi WNW 3.5 mph - N/A   Mostly Cloudy
10:55 PM 59.0 °F - 48.2 °F 67% 30.16 in 10.0 mi WNW 4.6 mph - N/A Rain Light Rain
11:15 PM 59.0 °F - 48.2 °F 67% 30.15 in 10.0 mi West 4.6 mph - N/A   Clear
11:35 PM 57.2 °F - 48.2 °F 72% 30.14 in 10.0 mi Calm Calm - N/A   Partly Cloudy
11:55 PM 59.0 °F - 48.2 °F 67% 30.14 in 10.0 mi WNW 3.5 mph - N/A   Mostly Cloudy